CSA688 LKPR-LEBL

Flight info

Callsign CSA688
Flight time 2h 19m
Altitude 36000
Route DOBEN RUDAP P31 DOSEL EBEDA BADVI BERAS OLPIX EKPEB RENTA LEVSI LEGLO BOTAL GEKBA VAMTU KOLON GANGU PADKO DIVKO NILDU N975 BISBA
Aircraft A339/H-SDE2E3FGHIJ1RWXY/LB1

Departure

Time 2026-05-06 19:19
Airport Václav Havel Airport Prague (LKPR)

Arrival

Time 2026-05-06 21:38
Airport Josep Tarradellas Barcelona-El Prat Airport (LEBL)
Time Latitude Longitude Altitude Speed Heading
2026-05-06 18:36 50.11029 14.26974 1189 ft 0 kts 244°
2026-05-06 19:00 50.11033 14.26986 1189 ft 2 kts 244°
2026-05-06 19:00 50.11040 14.27007 1189 ft 2 kts 244°
2026-05-06 19:00 50.11045 14.27029 1190 ft 2 kts 267°
2026-05-06 19:01 50.11043 14.27052 1190 ft 2 kts 286°
2026-05-06 19:01 50.11037 14.27074 1191 ft 2 kts 305°
2026-05-06 19:01 50.11028 14.27091 1191 ft 2 kts 324°
2026-05-06 19:01 50.11019 14.27099 1192 ft 0 kts 335°
2026-05-06 19:02 50.11017 14.27101 1192 ft 0 kts 335°
2026-05-06 19:06 50.11026 14.27094 1192 ft 4 kts 335°
2026-05-06 19:06 50.11070 14.27063 1189 ft 9 kts 335°
2026-05-06 19:07 50.11140 14.27015 1186 ft 12 kts 336°
2026-05-06 19:07 50.11222 14.26959 1181 ft 12 kts 333°
2026-05-06 19:07 50.11258 14.26856 1178 ft 9 kts 261°
2026-05-06 19:07 50.11237 14.26791 1177 ft 6 kts 249°
2026-05-06 19:08 50.11216 14.26710 1175 ft 10 kts 246°
2026-05-06 19:08 50.11182 14.26588 1173 ft 13 kts 246°
2026-05-06 19:08 50.11140 14.26448 1171 ft 14 kts 245°
2026-05-06 19:08 50.11095 14.26297 1170 ft 16 kts 244°
2026-05-06 19:09 50.11048 14.26141 1170 ft 14 kts 245°
2026-05-06 19:09 50.11007 14.26004 1171 ft 13 kts 242°
2026-05-06 19:09 50.10947 14.25898 1170 ft 13 kts 218°
2026-05-06 19:09 50.10874 14.25816 1173 ft 12 kts 215°
2026-05-06 19:10 50.10811 14.25746 1176 ft 10 kts 215°
2026-05-06 19:10 50.10755 14.25684 1178 ft 9 kts 214°
2026-05-06 19:10 50.10705 14.25632 1180 ft 7 kts 215°
2026-05-06 19:10 50.10683 14.25565 1181 ft 6 kts 272°
2026-05-06 19:11 50.10696 14.25481 1180 ft 9 kts 291°
2026-05-06 19:11 50.10729 14.25386 1179 ft 11 kts 299°
2026-05-06 19:11 50.10766 14.25287 1177 ft 9 kts 300°
2026-05-06 19:11 50.10782 14.25240 1177 ft 0 kts 297°
2026-05-06 19:12 50.10783 14.25238 1177 ft 1 kts 297°
2026-05-06 19:12 50.10791 14.25210 1176 ft 4 kts 292°
2026-05-06 19:13 50.10802 14.25157 1175 ft 0 kts 284°
2026-05-06 19:13 50.10802 14.25156 1175 ft 0 kts 284°
2026-05-06 19:16 50.10803 14.25153 1175 ft 1 kts 284°
2026-05-06 19:16 50.10809 14.25113 1174 ft 6 kts 282°
2026-05-06 19:16 50.10820 14.25027 1172 ft 10 kts 280°
2026-05-06 19:17 50.10829 14.24911 1172 ft 11 kts 269°
2026-05-06 19:17 50.10821 14.24785 1172 ft 11 kts 260°
2026-05-06 19:17 50.10798 14.24671 1172 ft 9 kts 233°
2026-05-06 19:17 50.10742 14.24653 1173 ft 7 kts 149°
2026-05-06 19:18 50.10729 14.24683 1174 ft 1 kts 121°
2026-05-06 19:18 50.10699 14.24756 1174 ft 32 kts 125°
2026-05-06 19:18 50.10405 14.25364 1188 ft 106 kts 127°
2026-05-06 19:18 50.09831 14.26559 1220 ft 166 kts 124°
2026-05-06 19:19 50.09040 14.28140 1435 ft 201 kts 127°
2026-05-06 19:19 50.08154 14.29919 1958 ft 211 kts 124°
2026-05-06 19:19 50.07267 14.31770 2485 ft 223 kts 124°
2026-05-06 19:19 50.06304 14.33787 2909 ft 241 kts 124°
2026-05-06 19:20 50.05273 14.35931 3388 ft 255 kts 124°
2026-05-06 19:20 50.04195 14.38163 4027 ft 263 kts 125°
2026-05-06 19:20 50.03082 14.40461 4609 ft 273 kts 126°
2026-05-06 19:20 50.01931 14.42826 5339 ft 277 kts 126°
2026-05-06 19:21 50.00797 14.45222 6071 ft 280 kts 121°
2026-05-06 19:21 50.00191 14.48081 6755 ft 285 kts 91°
2026-05-06 19:21 50.00535 14.51056 7513 ft 285 kts 64°
2026-05-06 19:21 50.01714 14.53472 8201 ft 289 kts 39°
2026-05-06 19:22 50.03352 14.55341 8636 ft 293 kts 35°
2026-05-06 19:22 50.05026 14.57188 8751 ft 296 kts 35°
2026-05-06 19:22 50.06683 14.59051 8751 ft 296 kts 36°
2026-05-06 19:22 50.08335 14.60934 8756 ft 295 kts 36°
2026-05-06 19:23 50.09994 14.62842 8757 ft 295 kts 36°
2026-05-06 19:23 50.11746 14.64493 8744 ft 295 kts 17°
2026-05-06 19:23 50.13765 14.64860 8750 ft 294 kts 350°
2026-05-06 19:23 50.15674 14.63911 8762 ft 290 kts 332°
2026-05-06 19:24 50.17484 14.62562 8764 ft 289 kts 332°
2026-05-06 19:24 50.19295 14.61197 8761 ft 288 kts 332°
2026-05-06 19:24 50.21103 14.59860 8762 ft 288 kts 332°
2026-05-06 19:24 50.22910 14.58545 8759 ft 287 kts 332°
2026-05-06 19:25 50.24731 14.57229 8759 ft 287 kts 333°
2026-05-06 19:25 50.26539 14.55928 8814 ft 290 kts 333°
2026-05-06 19:25 50.28404 14.54586 9362 ft 296 kts 333°
2026-05-06 19:25 50.30235 14.53235 10136 ft 295 kts 328°
2026-05-06 19:26 50.31819 14.51172 10535 ft 305 kts 305°
2026-05-06 19:26 50.32806 14.48178 10849 ft 318 kts 283°
2026-05-06 19:26 50.32980 14.44657 11143 ft 332 kts 261°
2026-05-06 19:26 50.32274 14.41204 11463 ft 345 kts 239°
2026-05-06 19:27 50.30698 14.38339 12008 ft 352 kts 217°
2026-05-06 19:27 50.28679 14.36196 12746 ft 354 kts 213°
2026-05-06 19:27 50.26653 14.34027 13433 ft 358 kts 214°
2026-05-06 19:27 50.24614 14.31826 14103 ft 362 kts 214°
2026-05-06 19:28 50.22523 14.29572 14788 ft 366 kts 214°
2026-05-06 19:28 50.20436 14.27328 15463 ft 369 kts 214°
2026-05-06 19:28 50.18315 14.25051 16190 ft 371 kts 214°
2026-05-06 19:28 50.16214 14.22800 16858 ft 373 kts 214°
2026-05-06 19:29 50.14076 14.20509 17551 ft 376 kts 214°
2026-05-06 19:29 50.11913 14.18196 18220 ft 379 kts 213°
2026-05-06 19:29 50.09731 14.15869 18861 ft 382 kts 214°
2026-05-06 19:29 50.07561 14.13559 19504 ft 385 kts 213°
2026-05-06 19:30 50.05354 14.11210 20162 ft 387 kts 214°
2026-05-06 19:30 50.03122 14.08839 20795 ft 390 kts 214°
2026-05-06 19:30 50.00881 14.06459 21411 ft 392 kts 214°
2026-05-06 19:30 49.98624 14.04065 22046 ft 394 kts 214°
2026-05-06 19:31 49.96375 14.01684 22614 ft 397 kts 214°
2026-05-06 19:31 49.94086 13.99261 23221 ft 398 kts 214°
2026-05-06 19:31 49.89494 13.94405 24322 ft 402 kts 214°
2026-05-06 19:32 49.87196 13.91981 24833 ft 405 kts 214°
2026-05-06 19:32 49.84872 13.89535 25318 ft 407 kts 214°
2026-05-06 19:32 49.82534 13.87071 25823 ft 409 kts 214°
2026-05-06 19:32 49.80173 13.84590 26335 ft 410 kts 214°
2026-05-06 19:33 49.77820 13.82120 26806 ft 412 kts 214°
2026-05-06 19:33 49.75457 13.79640 27250 ft 414 kts 214°
2026-05-06 19:33 49.73082 13.77152 27653 ft 416 kts 214°
2026-05-06 19:33 49.70664 13.74621 27757 ft 419 kts 214°
2026-05-06 19:34 49.68272 13.72123 27760 ft 418 kts 214°
2026-05-06 19:34 49.65850 13.69598 27751 ft 417 kts 214°
2026-05-06 19:34 49.63472 13.67122 27769 ft 417 kts 214°
2026-05-06 19:34 49.61055 13.64603 27769 ft 417 kts 214°
2026-05-06 19:35 49.58680 13.62137 27751 ft 417 kts 214°
2026-05-06 19:35 49.56266 13.59631 27765 ft 417 kts 214°
2026-05-06 19:35 49.53863 13.57137 27758 ft 417 kts 214°
2026-05-06 19:35 49.51465 13.54654 27764 ft 417 kts 214°
2026-05-06 19:36 49.49082 13.52188 27762 ft 418 kts 214°
2026-05-06 19:36 49.46649 13.49675 27877 ft 423 kts 214°
2026-05-06 19:36 49.44209 13.47159 28349 ft 423 kts 214°
2026-05-06 19:36 49.41786 13.44660 28829 ft 424 kts 214°
2026-05-06 19:37 49.39347 13.42147 29190 ft 426 kts 214°
2026-05-06 19:37 49.36855 13.39589 29544 ft 428 kts 214°
2026-05-06 19:37 49.34399 13.37037 29758 ft 428 kts 217°
2026-05-06 19:37 49.32233 13.33988 29750 ft 429 kts 228°
2026-05-06 19:38 49.30534 13.30194 29759 ft 430 kts 239°
2026-05-06 19:38 49.29246 13.26131 29776 ft 431 kts 243°
2026-05-06 19:38 49.26877 13.17679 29871 ft 436 kts 244°
2026-05-06 19:39 49.25702 13.13418 30433 ft 433 kts 244°
2026-05-06 19:39 49.24552 13.09234 31054 ft 429 kts 245°
2026-05-06 19:39 49.23404 13.05050 31601 ft 426 kts 245°
2026-05-06 19:39 49.22246 13.00894 32076 ft 423 kts 242°
2026-05-06 19:40 49.20742 12.97120 32505 ft 419 kts 232°
2026-05-06 19:40 49.18895 12.93749 32759 ft 417 kts 225°
2026-05-06 19:40 49.14375 12.88306 32767 ft 416 kts 211°
2026-05-06 19:41 49.09106 12.84721 32772 ft 417 kts 202°
2026-05-06 19:41 49.03682 12.81545 33035 ft 420 kts 202°
2026-05-06 19:42 49.00959 12.79959 33579 ft 416 kts 202°
2026-05-06 19:42 48.98278 12.78402 34083 ft 412 kts 202°
2026-05-06 19:42 48.95612 12.76859 34473 ft 411 kts 202°
2026-05-06 19:42 48.92961 12.75327 34726 ft 412 kts 202°
2026-05-06 19:43 48.87580 12.72220 34790 ft 413 kts 202°
2026-05-06 19:43 48.82230 12.69134 34803 ft 413 kts 202°
2026-05-06 19:44 48.76886 12.66064 34799 ft 413 kts 202°
2026-05-06 19:44 48.71508 12.62978 34854 ft 416 kts 202°
2026-05-06 19:45 48.68812 12.61436 35142 ft 415 kts 202°
2026-05-06 19:45 48.66118 12.59895 35478 ft 413 kts 202°
2026-05-06 19:45 48.63457 12.58377 35729 ft 413 kts 202°
2026-05-06 19:45 48.60791 12.56855 35952 ft 414 kts 202°
2026-05-06 19:46 48.58083 12.55312 36170 ft 415 kts 202°
2026-05-06 19:46 48.55405 12.53790 36376 ft 415 kts 202°
2026-05-06 19:46 48.52678 12.52247 36605 ft 416 kts 202°
2026-05-06 19:46 48.50001 12.50684 36776 ft 418 kts 204°
2026-05-06 19:47 48.44729 12.46944 36836 ft 418 kts 209°
2026-05-06 19:47 48.39793 12.42374 36843 ft 418 kts 215°
2026-05-06 19:48 48.35220 12.37004 36849 ft 424 kts 220°
2026-05-06 19:48 48.30699 12.31280 36852 ft 426 kts 219°
2026-05-06 19:49 48.26195 12.25566 36856 ft 426 kts 219°
2026-05-06 19:49 48.21624 12.19973 36846 ft 426 kts 216°
2026-05-06 19:50 48.16656 12.15153 36869 ft 427 kts 210°
2026-05-06 19:50 48.11325 12.11260 36857 ft 427 kts 204°
2026-05-06 19:51 48.05725 12.08369 36886 ft 430 kts 198°
2026-05-06 19:51 47.99989 12.05912 36880 ft 430 kts 198°
2026-05-06 19:52 47.94262 12.03465 36876 ft 429 kts 198°
2026-05-06 19:52 47.88511 12.01021 36881 ft 430 kts 198°
2026-05-06 19:53 47.82800 11.98604 36877 ft 430 kts 198°
2026-05-06 19:53 47.77050 11.96180 36896 ft 430 kts 198°
2026-05-06 19:54 47.71312 11.93720 36906 ft 430 kts 199°
2026-05-06 19:54 47.65646 11.91011 36882 ft 429 kts 200°
2026-05-06 19:55 47.59961 11.88286 36904 ft 429 kts 200°
2026-05-06 19:55 47.54330 11.85612 36900 ft 429 kts 200°
2026-05-06 19:56 47.48630 11.82919 36926 ft 429 kts 200°
2026-05-06 19:56 47.42974 11.80259 36927 ft 430 kts 200°
2026-05-06 19:57 47.37250 11.77700 36915 ft 430 kts 197°
2026-05-06 19:57 47.31429 11.75917 36911 ft 432 kts 192°
2026-05-06 19:58 47.25478 11.74535 36904 ft 432 kts 192°
2026-05-06 19:58 47.19572 11.73147 36914 ft 431 kts 192°
2026-05-06 19:59 47.13657 11.71774 36913 ft 431 kts 192°
2026-05-06 19:59 47.07760 11.70347 36914 ft 430 kts 194°
2026-05-06 20:00 47.01976 11.68249 36923 ft 429 kts 199°
2026-05-06 20:00 46.96397 11.65345 36921 ft 426 kts 205°
2026-05-06 20:01 46.91007 11.61800 36939 ft 426 kts 206°
2026-05-06 20:01 46.85587 11.58203 36926 ft 427 kts 206°
2026-05-06 20:02 46.80212 11.54629 36939 ft 427 kts 206°
2026-05-06 20:02 46.74897 11.50806 36932 ft 426 kts 211°
2026-05-06 20:03 46.69931 11.46201 36925 ft 424 kts 217°
2026-05-06 20:03 46.65378 11.40846 36941 ft 424 kts 223°
2026-05-06 20:04 46.61240 11.34749 36939 ft 424 kts 227°
2026-05-06 20:04 46.57259 11.28446 36938 ft 424 kts 227°
2026-05-06 20:05 46.53284 11.22150 36920 ft 424 kts 227°
2026-05-06 20:05 46.49325 11.15885 36917 ft 423 kts 227°
2026-05-06 20:06 46.45352 11.09610 36925 ft 423 kts 227°
2026-05-06 20:06 46.41391 11.03369 36932 ft 424 kts 227°
2026-05-06 20:07 46.37403 10.97096 36938 ft 424 kts 227°
2026-05-06 20:07 46.33401 10.90817 36938 ft 423 kts 227°
2026-05-06 20:08 46.29434 10.84559 36936 ft 424 kts 228°
2026-05-06 20:08 46.25603 10.78131 36933 ft 423 kts 229°
2026-05-06 20:09 46.21776 10.71697 36933 ft 423 kts 229°
2026-05-06 20:09 46.17948 10.65305 36933 ft 423 kts 229°
2026-05-06 20:10 46.14104 10.58905 36932 ft 423 kts 229°
2026-05-06 20:10 46.10262 10.52537 36940 ft 423 kts 229°
2026-05-06 20:11 46.06417 10.46170 36933 ft 423 kts 229°
2026-05-06 20:11 46.02571 10.39823 36939 ft 423 kts 229°
2026-05-06 20:12 45.98695 10.33439 36945 ft 422 kts 228°
2026-05-06 20:12 45.94842 10.27110 36932 ft 422 kts 228°
2026-05-06 20:13 45.91041 10.20757 36945 ft 422 kts 229°
2026-05-06 20:13 45.87258 10.14325 36953 ft 422 kts 229°
2026-05-06 20:14 45.83474 10.07916 36946 ft 421 kts 229°
2026-05-06 20:14 45.79692 10.01539 36962 ft 421 kts 229°
2026-05-06 20:15 45.75898 9.95151 36935 ft 421 kts 229°
2026-05-06 20:15 45.72113 9.88797 36947 ft 421 kts 229°
2026-05-06 20:16 45.68333 9.82470 36924 ft 420 kts 229°
2026-05-06 20:16 45.64389 9.76342 36917 ft 418 kts 225°
2026-05-06 20:17 45.60112 9.70773 36909 ft 419 kts 222°
2026-05-06 20:17 45.55758 9.65251 36909 ft 418 kts 222°
2026-05-06 20:18 45.51423 9.59773 36904 ft 418 kts 222°
2026-05-06 20:18 45.47068 9.54287 36907 ft 419 kts 222°
2026-05-06 20:19 45.42712 9.48819 36891 ft 418 kts 222°
2026-05-06 20:19 45.38356 9.43360 36888 ft 419 kts 222°
2026-05-06 20:20 45.33993 9.37907 36883 ft 418 kts 222°
2026-05-06 20:20 45.29648 9.32491 36882 ft 418 kts 221°
2026-05-06 20:21 45.25288 9.27064 36864 ft 419 kts 221°
2026-05-06 20:21 45.20903 9.21619 36868 ft 419 kts 221°
2026-05-06 20:22 45.16520 9.16188 36866 ft 419 kts 222°
2026-05-06 20:22 45.12308 9.10497 36857 ft 420 kts 226°
2026-05-06 20:23 45.08427 9.04387 36852 ft 420 kts 228°
2026-05-06 20:23 45.04557 8.98260 36856 ft 419 kts 228°
2026-05-06 20:24 45.00663 8.92103 36864 ft 420 kts 228°
2026-05-06 20:24 44.96793 8.85986 36860 ft 420 kts 228°
2026-05-06 20:25 44.92896 8.79839 36864 ft 421 kts 228°
2026-05-06 20:25 44.88997 8.73697 36865 ft 421 kts 228°
2026-05-06 20:26 44.85091 8.67562 36863 ft 421 kts 229°
2026-05-06 20:26 44.81191 8.61449 36866 ft 422 kts 228°
2026-05-06 20:27 44.77288 8.55342 36869 ft 422 kts 228°
2026-05-06 20:27 44.73376 8.49237 36859 ft 422 kts 228°
2026-05-06 20:28 44.69432 8.43094 36873 ft 422 kts 229°
2026-05-06 20:28 44.65532 8.37033 36873 ft 422 kts 229°
2026-05-06 20:29 44.61585 8.30916 36876 ft 421 kts 228°
2026-05-06 20:29 44.57670 8.24856 36881 ft 421 kts 228°
2026-05-06 20:30 44.51771 8.15753 36888 ft 422 kts 228°
2026-05-06 20:31 44.47847 8.09712 36876 ft 421 kts 228°
2026-05-06 20:31 44.43893 8.03643 36897 ft 420 kts 228°
2026-05-06 20:32 44.39991 7.97662 36873 ft 419 kts 228°
2026-05-06 20:32 44.36059 7.91651 36885 ft 420 kts 228°
2026-05-06 20:33 44.32122 7.85643 36876 ft 419 kts 228°
2026-05-06 20:33 44.28161 7.79656 36908 ft 419 kts 226°
2026-05-06 20:34 44.23936 7.74111 36889 ft 420 kts 223°
2026-05-06 20:34 44.19591 7.68738 36904 ft 420 kts 223°
2026-05-06 20:35 44.15273 7.63249 36894 ft 420 kts 225°
2026-05-06 20:35 44.11311 7.57290 36913 ft 420 kts 230°
2026-05-06 20:36 44.07486 7.51182 36898 ft 420 kts 229°
2026-05-06 20:36 44.03660 7.45092 36904 ft 421 kts 230°
2026-05-06 20:37 43.99823 7.38987 36887 ft 421 kts 230°
2026-05-06 20:37 43.95970 7.32862 36924 ft 421 kts 229°
2026-05-06 20:38 43.92135 7.26774 36938 ft 421 kts 229°
2026-05-06 20:38 43.88283 7.20674 36923 ft 421 kts 229°
2026-05-06 20:39 43.84446 7.14609 36924 ft 421 kts 229°
2026-05-06 20:39 43.80589 7.08530 36921 ft 422 kts 229°
2026-05-06 20:40 43.76785 7.02323 36944 ft 422 kts 232°
2026-05-06 20:40 43.73418 6.95743 36935 ft 421 kts 237°
2026-05-06 20:41 43.70512 6.88744 36936 ft 423 kts 242°
2026-05-06 20:41 43.68082 6.81336 36926 ft 424 kts 246°
2026-05-06 20:42 43.65867 6.73870 36925 ft 423 kts 246°
2026-05-06 20:42 43.63640 6.66364 36952 ft 424 kts 246°
2026-05-06 20:43 43.61409 6.58856 36933 ft 424 kts 246°
2026-05-06 20:43 43.59181 6.51366 36946 ft 424 kts 247°
2026-05-06 20:44 43.56945 6.43873 36941 ft 425 kts 247°
2026-05-06 20:44 43.54701 6.36375 36943 ft 425 kts 247°
2026-05-06 20:45 43.52443 6.28849 36937 ft 425 kts 246°
2026-05-06 20:45 43.50197 6.21390 36945 ft 425 kts 246°
2026-05-06 20:46 43.47930 6.13879 36944 ft 425 kts 246°
2026-05-06 20:46 43.45665 6.06400 36954 ft 425 kts 246°
2026-05-06 20:47 43.43401 5.98947 36966 ft 425 kts 246°
2026-05-06 20:47 43.41118 5.91454 36971 ft 425 kts 246°
2026-05-06 20:48 43.38840 5.84005 36969 ft 425 kts 246°
2026-05-06 20:48 43.36556 5.76552 36962 ft 425 kts 246°
2026-05-06 20:49 43.34263 5.69099 36964 ft 426 kts 246°
2026-05-06 20:49 43.31960 5.61629 36969 ft 426 kts 246°
2026-05-06 20:50 43.29643 5.54134 36962 ft 426 kts 246°
2026-05-06 20:50 43.27339 5.46704 36962 ft 426 kts 246°
2026-05-06 20:51 43.25025 5.39272 36961 ft 426 kts 247°
2026-05-06 20:51 43.22698 5.31815 36975 ft 425 kts 246°
2026-05-06 20:52 43.20380 5.24399 36971 ft 425 kts 246°
2026-05-06 20:52 43.18060 5.17001 37016 ft 423 kts 246°
2026-05-06 20:53 43.15739 5.09624 36984 ft 423 kts 246°
2026-05-06 20:53 43.13417 5.02266 36968 ft 423 kts 246°
2026-05-06 20:54 43.11079 4.94877 36974 ft 422 kts 246°
2026-05-06 20:54 43.08670 4.87596 36975 ft 423 kts 243°
2026-05-06 20:55 43.05712 4.80736 36967 ft 423 kts 237°
2026-05-06 20:55 43.02140 4.74357 36971 ft 424 kts 231°
2026-05-06 20:56 42.98006 4.68596 36973 ft 426 kts 224°
2026-05-06 20:56 42.93597 4.63243 36969 ft 426 kts 224°
2026-05-06 20:57 42.89181 4.57900 36979 ft 426 kts 224°
2026-05-06 20:57 42.84738 4.52547 36976 ft 425 kts 224°
2026-05-06 20:58 42.80325 4.47244 36978 ft 425 kts 224°
2026-05-06 20:58 42.75894 4.41929 36975 ft 425 kts 224°
2026-05-06 20:59 42.71479 4.36645 36977 ft 425 kts 224°
2026-05-06 20:59 42.67036 4.31342 36981 ft 425 kts 224°
2026-05-06 21:00 42.62620 4.26079 36981 ft 425 kts 224°
2026-05-06 21:00 42.58181 4.20800 36982 ft 425 kts 224°
2026-05-06 21:01 42.53754 4.15546 36959 ft 422 kts 224°
2026-05-06 21:01 42.51543 4.12926 36667 ft 420 kts 224°
2026-05-06 21:01 42.49361 4.10343 36248 ft 419 kts 224°
2026-05-06 21:01 42.47189 4.07775 35837 ft 417 kts 224°
2026-05-06 21:02 42.44999 4.05188 35209 ft 415 kts 224°
2026-05-06 21:02 42.42828 4.02628 34883 ft 412 kts 225°
2026-05-06 21:02 42.40689 4.00105 34557 ft 410 kts 225°
2026-05-06 21:02 42.38571 3.97607 34113 ft 408 kts 225°
2026-05-06 21:03 42.36431 3.95087 33607 ft 405 kts 225°
2026-05-06 21:03 42.34314 3.92596 33118 ft 403 kts 225°
2026-05-06 21:03 42.32235 3.90151 32625 ft 400 kts 225°
2026-05-06 21:03 42.30128 3.87677 32124 ft 398 kts 225°
2026-05-06 21:04 42.28048 3.85238 31623 ft 396 kts 225°
2026-05-06 21:04 42.25977 3.82810 31124 ft 394 kts 225°
2026-05-06 21:04 42.23944 3.80429 30630 ft 391 kts 225°
2026-05-06 21:04 42.21885 3.78021 30111 ft 389 kts 225°
2026-05-06 21:05 42.19848 3.75643 29592 ft 387 kts 225°
2026-05-06 21:05 42.17836 3.73294 29080 ft 385 kts 225°
2026-05-06 21:05 42.15812 3.70934 28555 ft 384 kts 225°
2026-05-06 21:05 42.13815 3.68606 28037 ft 382 kts 224°
2026-05-06 21:06 42.11823 3.66289 27516 ft 380 kts 224°
2026-05-06 21:06 42.09824 3.63958 26994 ft 379 kts 225°
2026-05-06 21:06 42.07909 3.61533 26475 ft 376 kts 229°
2026-05-06 21:06 42.06097 3.59014 25949 ft 375 kts 229°
2026-05-06 21:07 42.04303 3.56512 25427 ft 374 kts 229°
2026-05-06 21:07 42.02502 3.54002 24911 ft 373 kts 229°
2026-05-06 21:07 42.00704 3.51496 24370 ft 371 kts 229°
2026-05-06 21:07 41.98952 3.49057 23833 ft 363 kts 230°
2026-05-06 21:08 41.97213 3.46640 23322 ft 356 kts 230°
2026-05-06 21:08 41.95508 3.44266 22813 ft 349 kts 229°
2026-05-06 21:08 41.93853 3.41963 22311 ft 343 kts 230°
2026-05-06 21:08 41.92206 3.39675 21806 ft 338 kts 229°
2026-05-06 21:09 41.90600 3.37444 21293 ft 334 kts 229°
2026-05-06 21:09 41.88994 3.35215 20791 ft 332 kts 229°
2026-05-06 21:09 41.87383 3.32979 20294 ft 335 kts 229°
2026-05-06 21:09 41.85762 3.30729 19802 ft 338 kts 228°
2026-05-06 21:10 41.84135 3.28477 19304 ft 340 kts 228°
2026-05-06 21:10 41.82481 3.26189 18781 ft 343 kts 228°
2026-05-06 21:10 41.80828 3.23905 18256 ft 345 kts 228°
2026-05-06 21:10 41.79158 3.21598 17762 ft 346 kts 228°
2026-05-06 21:11 41.77470 3.19268 17255 ft 348 kts 228°
2026-05-06 21:11 41.75796 3.16961 16766 ft 349 kts 228°
2026-05-06 21:11 41.74108 3.14637 16259 ft 351 kts 227°
2026-05-06 21:11 41.72400 3.12284 15749 ft 352 kts 227°
2026-05-06 21:12 41.70698 3.09944 15239 ft 352 kts 227°
2026-05-06 21:12 41.68998 3.07609 14732 ft 353 kts 227°
2026-05-06 21:12 41.67288 3.05262 14242 ft 354 kts 227°
2026-05-06 21:12 41.65460 3.03051 13730 ft 356 kts 218°
2026-05-06 21:13 41.63320 3.01353 13193 ft 355 kts 207°
2026-05-06 21:13 41.61155 2.99994 12651 ft 340 kts 206°
2026-05-06 21:13 41.59061 2.98722 12153 ft 326 kts 206°
2026-05-06 21:13 41.57032 2.97489 11645 ft 314 kts 206°
2026-05-06 21:14 41.55085 2.96298 11149 ft 304 kts 207°
2026-05-06 21:14 41.53188 2.95132 10646 ft 296 kts 207°
2026-05-06 21:14 41.51344 2.93994 10170 ft 288 kts 206°
2026-05-06 21:14 41.49553 2.92889 9899 ft 286 kts 207°
2026-05-06 21:15 41.47746 2.91772 9634 ft 286 kts 206°
2026-05-06 21:15 41.45940 2.90658 9385 ft 286 kts 206°
2026-05-06 21:15 41.44134 2.89545 9149 ft 284 kts 206°
2026-05-06 21:15 41.42343 2.88441 8895 ft 283 kts 206°
2026-05-06 21:16 41.40637 2.87218 8644 ft 281 kts 216°
2026-05-06 21:16 41.39140 2.85576 8379 ft 279 kts 226°
2026-05-06 21:16 41.37791 2.83705 8145 ft 279 kts 228°
2026-05-06 21:16 41.36462 2.81801 7925 ft 279 kts 229°
2026-05-06 21:17 41.35158 2.79933 7674 ft 277 kts 229°
2026-05-06 21:17 41.33840 2.78054 7429 ft 276 kts 229°
2026-05-06 21:17 41.32538 2.76205 7178 ft 274 kts 228°
2026-05-06 21:17 41.31240 2.74369 6919 ft 273 kts 228°
2026-05-06 21:18 41.29939 2.72535 6661 ft 272 kts 228°
2026-05-06 21:18 41.28643 2.70707 6419 ft 271 kts 228°
2026-05-06 21:18 41.27351 2.68885 6177 ft 270 kts 228°
2026-05-06 21:18 41.26111 2.67021 5995 ft 266 kts 238°
2026-05-06 21:19 41.25440 2.64810 5980 ft 253 kts 262°
2026-05-06 21:19 41.25314 2.62535 5956 ft 248 kts 269°
2026-05-06 21:19 41.25266 2.60248 5733 ft 248 kts 269°
2026-05-06 21:19 41.25220 2.57970 5504 ft 248 kts 269°
2026-05-06 21:20 41.25164 2.55691 5279 ft 247 kts 269°
2026-05-06 21:20 41.25099 2.53397 5049 ft 247 kts 269°
2026-05-06 21:20 41.25031 2.51134 4829 ft 246 kts 268°
2026-05-06 21:20 41.24960 2.48867 4605 ft 246 kts 268°
2026-05-06 21:21 41.24889 2.46609 4377 ft 245 kts 269°
2026-05-06 21:21 41.24786 2.44350 4146 ft 245 kts 261°
2026-05-06 21:21 41.24121 2.42291 4016 ft 241 kts 237°
2026-05-06 21:21 41.23138 2.40493 4004 ft 242 kts 233°
2026-05-06 21:22 41.22106 2.38749 4001 ft 242 kts 232°
2026-05-06 21:22 41.20874 2.37223 3998 ft 243 kts 216°
2026-05-06 21:22 41.19450 2.35970 4003 ft 243 kts 213°
2026-05-06 21:22 41.18017 2.34797 4001 ft 243 kts 212°
2026-05-06 21:23 41.16586 2.33640 3993 ft 243 kts 212°
2026-05-06 21:23 41.15132 2.32468 3998 ft 243 kts 212°
2026-05-06 21:23 41.13680 2.31298 3999 ft 244 kts 212°
2026-05-06 21:23 41.12234 2.30129 4005 ft 245 kts 212°
2026-05-06 21:24 41.10856 2.28801 3994 ft 245 kts 227°
2026-05-06 21:24 41.09795 2.27022 4001 ft 245 kts 237°
2026-05-06 21:24 41.08911 2.25097 3996 ft 244 kts 240°
2026-05-06 21:24 41.08081 2.23128 3996 ft 244 kts 242°
2026-05-06 21:25 41.07309 2.21129 3992 ft 243 kts 251°
2026-05-06 21:25 41.07029 2.18937 3996 ft 242 kts 269°
2026-05-06 21:25 41.07052 2.16734 3999 ft 242 kts 272°
2026-05-06 21:25 41.07102 2.14495 3996 ft 242 kts 272°
2026-05-06 21:26 41.07142 2.12281 3996 ft 241 kts 271°
2026-05-06 21:26 41.07137 2.10064 3934 ft 241 kts 263°
2026-05-06 21:26 41.06442 2.08074 3786 ft 243 kts 224°
2026-05-06 21:26 41.04964 2.07032 3679 ft 242 kts 197°
2026-05-06 21:27 41.03363 2.06406 3560 ft 238 kts 198°
2026-05-06 21:27 41.01818 2.05757 3431 ft 234 kts 199°
2026-05-06 21:27 41.00284 2.05082 3303 ft 228 kts 199°
2026-05-06 21:27 40.98789 2.04412 3173 ft 223 kts 199°
2026-05-06 21:28 40.97332 2.03753 3050 ft 222 kts 199°
2026-05-06 21:28 40.95865 2.03089 2997 ft 222 kts 199°
2026-05-06 21:28 40.94427 2.02438 2986 ft 216 kts 199°
2026-05-06 21:28 40.93034 2.01810 2974 ft 205 kts 199°
2026-05-06 21:29 40.91734 2.01120 2966 ft 200 kts 217°
2026-05-06 21:29 40.90903 1.99697 2987 ft 198 kts 253°
2026-05-06 21:29 40.90904 1.97937 3002 ft 197 kts 290°
2026-05-06 21:29 40.91734 1.96530 2999 ft 198 kts 327°
2026-05-06 21:30 40.93044 1.95937 3008 ft 200 kts 348°
2026-05-06 21:30 40.94416 1.95644 2856 ft 198 kts 351°
2026-05-06 21:30 40.95780 1.95392 2677 ft 194 kts 352°
2026-05-06 21:30 40.97111 1.95257 2497 ft 190 kts 358°
2026-05-06 21:31 40.98412 1.95240 2318 ft 186 kts
2026-05-06 21:31 40.99690 1.95457 2139 ft 184 kts 12°
2026-05-06 21:31 41.00944 1.95878 2015 ft 185 kts 17°
2026-05-06 21:31 41.02178 1.96378 2013 ft 185 kts 19°
2026-05-06 21:32 41.03397 1.96904 2011 ft 186 kts 19°
2026-05-06 21:32 41.05857 1.98004 2009 ft 186 kts 19°
2026-05-06 21:32 41.07069 1.98556 2007 ft 186 kts 20°
2026-05-06 21:33 41.08298 1.99119 2007 ft 186 kts 20°
2026-05-06 21:33 41.09513 1.99676 2007 ft 186 kts 20°
2026-05-06 21:33 41.10749 2.00244 2007 ft 186 kts 20°
2026-05-06 21:33 41.11959 2.00799 2007 ft 185 kts 20°
2026-05-06 21:34 41.13176 2.01357 1999 ft 180 kts 20°
2026-05-06 21:34 41.14308 2.01875 1992 ft 165 kts 20°
2026-05-06 21:34 41.15396 2.02373 1998 ft 164 kts 20°
2026-05-06 21:34 41.16477 2.02868 2000 ft 165 kts 20°
2026-05-06 21:35 41.17553 2.03360 2000 ft 165 kts 20°
2026-05-06 21:35 41.18641 2.03857 1995 ft 165 kts 20°
2026-05-06 21:35 41.19736 2.04357 1863 ft 166 kts 20°
2026-05-06 21:35 41.20828 2.04856 1646 ft 165 kts 20°
2026-05-06 21:36 41.21897 2.05344 1432 ft 161 kts 20°
2026-05-06 21:36 41.22946 2.05822 1214 ft 156 kts 20°
2026-05-06 21:36 41.23955 2.06283 1011 ft 150 kts 21°
2026-05-06 21:36 41.24921 2.06723 819 ft 143 kts 21°
2026-05-06 21:37 41.25861 2.07153 644 ft 144 kts 21°
2026-05-06 21:37 41.26819 2.07582 438 ft 144 kts 21°
2026-05-06 21:37 41.27752 2.08005 273 ft 143 kts 21°
2026-05-06 21:37 41.28695 2.08442 56 ft 142 kts 21°
2026-05-06 21:38 41.29531 2.08837 25 ft 99 kts 17°
2026-05-06 21:38 41.30062 2.09059 25 ft 55 kts 21°
2026-05-06 21:38 41.30361 2.09201 24 ft 39 kts 19°
2026-05-06 21:38 41.30551 2.09279 25 ft 21 kts 359°
2026-05-06 21:39 41.30645 2.09205 25 ft 15 kts 321°
2026-05-06 21:39 41.30678 2.09114 26 ft 9 kts 258°
2026-05-06 21:39 41.30635 2.09070 27 ft 6 kts 202°
2026-05-06 21:39 41.30586 2.09043 27 ft 8 kts 202°
2026-05-06 21:40 41.30548 2.09024 28 ft 5 kts 199°
2026-05-06 21:40 41.30539 2.09020 28 ft 1 kts 199°
2026-05-06 21:40 41.30524 2.09013 28 ft 3 kts 198°
2026-05-06 21:40 41.30497 2.09001 28 ft 5 kts 198°
2026-05-06 21:41 41.30450 2.08981 27 ft 8 kts 200°
2026-05-06 21:41 41.30400 2.08923 26 ft 10 kts 239°
2026-05-06 21:41 41.30366 2.08839 28 ft 10 kts 242°
2026-05-06 21:41 41.30336 2.08758 28 ft 8 kts 246°
2026-05-06 21:42 41.30310 2.08676 28 ft 10 kts 246°
2026-05-06 21:42 41.30286 2.08603 29 ft 8 kts 246°
2026-05-06 21:42 41.30263 2.08533 30 ft 9 kts 246°
2026-05-06 21:42 41.30235 2.08449 30 ft 10 kts 246°
2026-05-06 21:43 41.30205 2.08359 32 ft 10 kts 246°
2026-05-06 21:43 41.30174 2.08266 33 ft 11 kts 246°
2026-05-06 21:43 41.30143 2.08172 34 ft 11 kts 246°
2026-05-06 21:43 41.30112 2.08081 36 ft 10 kts 246°
2026-05-06 21:44 41.30077 2.08002 36 ft 6 kts 217°
2026-05-06 21:44 41.30030 2.08000 35 ft 8 kts 161°
2026-05-06 21:44 41.29966 2.08032 34 ft 11 kts 158°
2026-05-06 21:44 41.29925 2.08054 33 ft 0 kts 158°
2026-05-06 21:45 41.29923 2.08055 33 ft 0 kts 158°
2026-05-06 21:45 41.29922 2.08055 33 ft 0 kts 158°
2026-05-06 21:47 41.29915 2.08059 33 ft 3 kts 158°
2026-05-06 21:47 41.29883 2.08076 32 ft 6 kts 158°
2026-05-06 21:47 41.29827 2.08107 31 ft 10 kts 158°
2026-05-06 21:47 41.29752 2.08148 30 ft 13 kts 157°
2026-05-06 21:48 41.29662 2.08199 28 ft 15 kts 156°
2026-05-06 21:48 41.29572 2.08252 26 ft 14 kts 155°
2026-05-06 21:48 41.29471 2.08313 25 ft 16 kts 155°
2026-05-06 21:48 41.29399 2.08359 24 ft 7 kts 154°
2026-05-06 21:49 41.29352 2.08382 24 ft 5 kts 182°
2026-05-06 21:49 41.29321 2.08359 24 ft 5 kts 223°
2026-05-06 21:49 41.29288 2.08315 24 ft 8 kts 225°
2026-05-06 21:49 41.29254 2.08265 23 ft 2 kts 225°
2026-05-06 21:50 41.29249 2.08259 23 ft 0 kts 225°